TimeEDT,TemperatureF,Dew PointF,Humidity,Sea Level PressureIn,VisibilityMPH,Wind Direction,Wind SpeedMPH,Gust SpeedMPH,PrecipitationIn,Events,Conditions,WindDirDegrees,DateUTC
12:58 AM,70.5,67.6,91,30.01,10.0,SE,3.5,-,N/A,,Clear,140,2013-08-30 04:58:00
1:58 AM,69.4,67.3,93,29.99,10.0,SSE,3.5,-,N/A,,Clear,150,2013-08-30 05:58:00
2:58 AM,67.8,66.9,97,29.99,10.0,SSE,1.2,-,N/A,,Clear,150,2013-08-30 06:58:00
3:58 AM,67.3,66.6,98,29.99,10.0,Calm,Calm,-,N/A,,Clear,0,2013-08-30 07:58:00
4:38 AM,66.2,66.2,100,29.99,9.0,ESE,2.3,-,N/A,,Clear,120,2013-08-30 08:38:00
4:48 AM,66.2,66.2,100,29.99,10.0,SE,2.3,-,N/A,,Clear,130,2013-08-30 08:48:00
4:58 AM,66.6,66.6,100,29.99,10.0,SE,2.3,-,N/A,,Clear,140,2013-08-30 08:58:00
5:03 AM,66.2,66.2,100,29.99,9.0,SSE,2.3,-,N/A,,Clear,150,2013-08-30 09:03:00
5:58 AM,65.8,65.8,100,29.98,9.0,SE,3.5,-,N/A,,Clear,140,2013-08-30 09:58:00
6:58 AM,65.3,65.3,100,29.99,9.0,SSE,3.5,-,N/A,,Clear,150,2013-08-30 10:58:00
7:03 AM,64.4,64.4,100,29.99,9.0,SSE,2.3,-,N/A,,Clear,160,2013-08-30 11:03:00
7:58 AM,66.6,66.6,100,29.99,7.0,SE,2.3,-,N/A,,Clear,140,2013-08-30 11:58:00
8:58 AM,71.6,70.2,95,29.98,8.0,South,5.8,-,N/A,,Clear,180,2013-08-30 12:58:00
9:58 AM,76.1,71.2,85,29.97,10.0,SSW,5.8,-,N/A,,Clear,200,2013-08-30 13:58:00
10:32 AM,78.8,71.6,78,29.97,10.0,SSW,6.9,-,N/A,,Clear,210,2013-08-30 14:32:00
10:58 AM,80.1,71.6,75,29.96,10.0,SSW,6.9,-,N/A,,Clear,210,2013-08-30 14:58:00
11:07 AM,80.6,71.6,74,29.97,10.0,SSW,6.9,-,N/A,,Clear,210,2013-08-30 15:07:00
11:17 AM,82.4,71.6,70,29.97,10.0,SW,8.1,-,N/A,,Clear,230,2013-08-30 15:17:00
11:58 AM,84.2,71.6,66,29.95,10.0,SW,9.2,-,N/A,,Clear,220,2013-08-30 15:58:00
12:58 PM,86.0,69.8,58,29.93,10.0,SW,12.7,-,N/A,,Partly Cloudy,220,2013-08-30 16:58:00
1:58 PM,87.8,69.4,54,29.92,10.0,SW,9.2,17.3,N/A,,Partly Cloudy,230,2013-08-30 17:58:00
2:58 PM,89.8,69.6,51,29.90,10.0,SW,5.8,-,N/A,,Clear,230,2013-08-30 18:58:00
3:58 PM,89.8,71.1,54,29.88,10.0,SW,8.1,-,N/A,,Clear,230,2013-08-30 19:58:00
4:58 PM,90.7,70.5,51,29.86,10.0,West,8.1,-,N/A,,Clear,260,2013-08-30 20:58:00
5:58 PM,90.5,71.1,53,29.84,10.0,South,6.9,-,N/A,,Clear,190,2013-08-30 21:58:00
6:58 PM,88.7,73.4,60,29.82,10.0,SSW,8.1,-,N/A,,Clear,210,2013-08-30 22:58:00
7:58 PM,84.7,74.8,72,29.83,10.0,SSW,6.9,-,N/A,,Clear,210,2013-08-30 23:58:00
8:58 PM,81.5,74.1,78,29.82,10.0,SW,11.5,-,N/A,,Clear,220,2013-08-31 00:58:00
9:58 PM,81.7,74.1,78,29.83,10.0,WSW,8.1,-,N/A,,Partly Cloudy,240,2013-08-31 01:58:00
10:58 PM,80.2,72.3,77,29.82,10.0,West,6.9,-,N/A,,Partly Cloudy,280,2013-08-31 02:58:00
11:58 PM,76.3,72.0,86,29.76,10.0,SSW,10.4,-,N/A,,Clear,210,2013-08-31 03:58:00